TimeCST,TemperatureF,Dew PointF,Humidity,Sea Level PressureIn,VisibilityMPH,Wind Direction,Wind SpeedMPH,Gust SpeedMPH,PrecipitationIn,Events,Conditions,WindDirDegrees,DateUTC
12:53 AM,45.0,37.9,76,30.12,10.0,NNE,4.6,-,N/A,,Clear,30,2013-02-14 06:53:00
1:53 AM,45.0,37.9,76,30.11,-9999.0,East,6.9,-,N/A,,Clear,80,2013-02-14 07:53:00
2:53 AM,45.0,37.9,76,30.10,-9999.0,ENE,5.8,-,N/A,,Clear,60,2013-02-14 08:53:00
3:53 AM,42.1,37.9,85,30.09,-9999.0,NE,5.8,-,N/A,,Clear,40,2013-02-14 09:53:00
4:53 AM,41.0,36.0,82,30.09,-9999.0,NE,6.9,-,N/A,,Clear,40,2013-02-14 10:53:00
5:53 AM,39.9,36.0,86,30.11,-9999.0,NNE,5.8,-,N/A,,Clear,20,2013-02-14 11:53:00
7:53 AM,43.0,39.0,86,30.14,-9999.0,NE,5.8,-,N/A,,Clear,40,2013-02-14 13:53:00
8:53 AM,51.1,46.0,83,30.17,-9999.0,ENE,8.1,-,N/A,,Clear,70,2013-02-14 14:53:00
9:53 AM,57.9,44.1,60,30.16,10.0,ENE,6.9,-,N/A,,Clear,60,2013-02-14 15:53:00
10:53 AM,62.1,37.9,41,30.16,10.0,Variable,3.5,-,N/A,,Clear,0,2013-02-14 16:53:00
11:53 AM,62.1,37.0,39,30.14,10.0,Calm,Calm,-,N/A,,Clear,0,2013-02-14 17:53:00
12:53 PM,66.0,27.0,23,30.13,10.0,Calm,Calm,-,N/A,,Clear,0,2013-02-14 18:53:00
1:53 PM,64.9,37.9,37,30.10,10.0,South,8.1,-,N/A,,Clear,180,2013-02-14 19:53:00
2:53 PM,64.9,41.0,42,30.07,10.0,SSW,9.2,-,N/A,,Clear,200,2013-02-14 20:53:00
3:53 PM,64.9,44.1,47,30.05,10.0,SSW,10.4,-,N/A,,Clear,200,2013-02-14 21:53:00
4:53 PM,64.0,36.0,35,30.06,10.0,SSE,11.5,-,N/A,,Clear,150,2013-02-14 22:53:00
5:53 PM,60.1,39.0,46,30.07,10.0,SSE,10.4,-,N/A,,Clear,150,2013-02-14 23:53:00
6:53 PM,54.0,42.1,64,30.07,10.0,SE,6.9,-,N/A,,Clear,130,2013-02-15 00:53:00
7:53 PM,52.0,43.0,71,30.08,10.0,ESE,8.1,-,N/A,,Clear,110,2013-02-15 01:53:00
8:53 PM,51.1,43.0,74,30.08,10.0,ESE,8.1,-,N/A,,Clear,110,2013-02-15 02:53:00
9:53 PM,53.1,45.0,74,30.10,10.0,ESE,9.2,-,N/A,,Clear,120,2013-02-15 03:53:00
10:53 PM,50.0,43.0,77,30.10,10.0,ESE,4.6,-,N/A,,Clear,120,2013-02-15 04:53:00
11:53 PM,50.0,44.1,80,30.10,10.0,ESE,4.6,-,N/A,,Clear,110,2013-02-15 05:53:00